CUBERRT (43546 NORAD) Tracking and Keplerian Element Data

This shows tracking and keplerian element data for the satellite.

Feedback or suggestion? Click here.




ElementValue
Catalog43546
NameCUBERRT
Epoch Orbit1936
Epoch Day319.37906803
Epoch Year2018
RAAN343.5778
Inclination51.6402
Eccentricity0.0006679
Argument of Perigee41.9242
Mean Anonmoly318.226
Mean Motion15.5736646
Decay Rate0.00014591
L11 43546U 98067NU 18319.37906803 .00014591 00000-0 20176-3 0 9999
L22 43546 51.6402 343.5778 0006679 41.9242 318.2260 15.57366460 19363

Live tracking and technical data element details for CUBERRT (NORAD 43546). CUBERRT can be tracked NOW for your location showing map with azimuth and elevation plus other details from your city location.

Track the satellite on the map from your city or location and see movement details for azimuth, elevation, latitude, longitude, range, height, and movement on the map or in text.







IsCatalogInMostPopularTable: catalog: 43546, numindb: 37
Update: records affected: 1



GetName: 43546 CUBERRT

Hit Count: updated at: Sat, 17 Nov 2018 02:05:26 GMT